[[{"header":{"parameterUnit":"m.s-1","parameterCategory":1,"la1":30.2991,"la2":30.254,"lo1":-89.0895,"lo2":-89.0444,"dy":0.0017,"dx":0.0017,"nx":28,"ny":28,"refTime":"2024-10-17T09:00:00:Z","depth":0,"parameterNumber":2,"parameterNumberName":"U-component_of_WINDS"},"data":[0,0,0,0,0,0,0,0,0,0,0,0,0,0,0,0,0,0,0,0,0,0,0,0,0,0,0,0,0,0,0,0,0,0,0,0,0,0,0,0,0,0,0,0,0,0,0,0,0,0,0,0,0,0,0,0,0,0,-4.8135,-4.8135,0,-4.8141,-4.8142,-4.8142,-4.7983,-4.7978,-4.7974,-4.797,-4.7979,-4.7983,-4.7987,0,0,0,0,0,0,0,0,0,0,0,0,0,-4.7988,-4.7992,-4.8135,-4.8135,-4.8135,-4.8141,-4.8142,-4.8142,-4.7983,-4.7978,-4.7973,-4.7968,-4.7977,-4.7982,-4.7987,0,0,0,0,0,0,0,0,0,0,0,0,0,-4.8029,-4.7993,-4.8135,-4.8057,-4.805,-4.8141,-4.8142,-4.8142,-4.7984,-4.7978,-4.7972,-4.7966,-4.7975,-4.7982,-4.7988,-4.8155,0,0,-4.8007,-4.801,0,0,0,0,0,0,0,0,-4.8027,-4.8035,-4.8069,-4.8063,-4.8055,-4.8055,-4.8092,-4.8146,-4.7986,-4.801,-4.797,-4.7962,-4.8009,-4.8012,-4.8028,-4.8155,-4.8156,-4.8008,-4.8011,-4.8014,-4.8016,0,0,0,0,0,0,0,-4.8024,-4.8034,-4.8138,-4.8069,-4.8061,-4.8022,-4.8021,-4.8102,-4.8045,-4.8007,-4.7995,-4.7998,-4.8004,-4.8022,-4.8027,-4.8156,-4.8007,-4.8013,-4.8017,-4.8019,-4.8422,-4.8429,0,0,0,0,0,0,-4.8032,-4.8032,-4.8137,-4.8138,-4.8025,-4.803,-4.8029,-4.8061,-4.8044,-4.8035,-4.8004,-4.7991,-4.8014,-4.8019,-4.8026,-4.8222,-4.8014,-4.802,-4.8024,-4.8415,-4.8424,-4.8431,0,0,0,0,0,0,-4.8029,-4.8043,-4.8137,-4.8082,-4.8091,-4.8039,-4.8077,-4.8065,-4.8082,-4.8041,-4.8031,-4.8032,-4.8009,-4.8017,-4.8124,-4.822,-4.8023,-4.8029,-4.8407,-4.8418,-4.8427,-4.8615,0,0,0,0,0,0,-4.8026,-4.8043,-4.8106,-4.8085,-4.8095,-4.8235,-4.8083,-4.807,-4.8093,-4.8076,-4.8065,-4.8057,-4.8005,-4.8116,-4.8131,-4.8225,-4.8034,-4.8398,-4.8412,-4.8424,-4.86,-4.8631,-4.8657,0,0,0,0,0,-4.8021,-4.8158,-4.811,-4.8123,-4.8172,-4.8241,-4.8247,-4.8183,-4.8102,-4.8165,-4.8138,-4.8058,-4.8207,-4.8128,-4.8143,-4.8242,-4.8392,-4.8408,-4.8423,-4.8588,-4.8625,-4.8656,0,0,0,0,0,0,-4.8193,-4.8154,-4.81,-4.8234,-4.8242,-4.8214,-4.8292,-4.8225,-4.8257,-4.824,-4.816,-4.8159,-4.8279,-4.827,-4.8183,-4.8403,-4.8285,-4.8305,-4.8405,-4.844,-4.8468,-4.8469,-4.8039,0,0,0,0,0,-4.8246,-4.8305,-4.8268,-4.839,-4.8397,-4.8344,-4.8372,-4.8322,-4.8328,-4.833,-4.8312,-4.8321,-4.8369,-4.8403,-4.8446,-4.8597,-4.8593,-4.8672,-4.87,-4.8724,-4.8743,-4.8824,-4.8859,-4.8482,-4.8482,-4.8482,0,0,-4.8357,-4.8343,-4.8386,-4.8424,-4.8425,-4.8489,-4.8348,-4.8421,-4.8468,-4.8341,-4.8442,-4.8429,-4.8433,-4.8564,-4.862,-4.856,-4.8845,-4.8744,-4.8763,-4.8769,-4.8843,-4.8879,-4.8911,-4.8493,-4.8491,-4.8489,0,0,-4.8593,-4.8587,-4.8689,-4.8693,-4.8695,-4.8658,-4.8683,-4.8665,-4.8652,-4.8751,-4.8657,-4.8712,-4.8797,-4.8805,-4.882,-4.9059,-4.8987,-4.9075,-4.9224,-4.9304,-4.9333,-4.9359,-4.9447,-4.9479,-4.9093,-4.9093,-4.9094,0,-4.8731,-4.8823,-4.875,-4.883,-4.8851,-4.8738,-4.8842,-4.8848,-4.8865,-4.8882,-4.8814,-4.8919,-4.8914,-4.9046,-4.9104,-4.9119,-4.9146,-4.9077,-4.9335,-4.936,-4.9383,-4.9466,-4.9499,-4.9104,-4.9103,-4.9102,-4.9101,0,-4.8994,-4.9059,-4.9141,-4.916,-4.9189,-4.9281,-4.9223,-4.9261,-4.9209,-4.918,-4.9283,-4.9273,-4.9312,-4.9339,-4.9289,-4.9464,-4.9427,-4.9348,-4.9229,-4.9432,-4.9508,-4.9539,-4.912,-4.9116,-4.9113,-4.911,0,0,-4.934,-4.9317,-4.9349,-4.9356,-4.935,-4.94,-4.9486,-4.9524,-4.9559,-4.9574,-4.9646,-4.972,-4.9648,-4.9665,-4.9614,-4.9684,-4.9877,-4.9596,-4.9595,-4.9651,-5.0072,-5.0134,-5.0172,-4.9827,-4.9833,-4.9837,-5.0073,0,-4.9571,-4.9718,-4.9655,-4.9808,-4.9868,-4.9761,-4.9837,-4.9842,-4.9817,-4.9865,-4.9837,-4.9893,-4.9791,-4.9801,-4.9865,-4.984,-4.9961,-4.9821,-4.9896,-4.9899,-4.9901,-5.0211,-5.0276,-5.0499,-5.0102,-5.0107,-5.011,0,-4.9861,-4.9888,-5.0047,-5.0031,-5.0054,-5.0123,-5.0153,-5.0199,-5.0203,-5.018,-5.02,-5.0133,-5.0218,-5.0097,-5.0213,-5.012,-5.0146,-5.0138,-5.0145,-5.0152,-5.0019,-5.0229,-5.0568,-5.0603,-5.0156,-5.0152,-5.0149,0,-5.0101,-5.0177,-5.0282,-5.0291,-5.0274,-5.0326,-5.0321,-5.0318,-5.0345,-5.0371,-5.0388,-5.0424,-5.0445,-5.0475,-5.042,-5.0336,-5.0545,-5.0419,-5.0531,-5.0533,-5.0582,-5.058,-5.0933,-5.0594,-5.0594,-5.0593,-5.0592,0,-5.0368,-5.047,-5.039,-5.0455,-5.0567,-5.0493,-5.0606,-5.059,-5.0588,-5.0649,-5.0558,-5.0617,-5.0539,-5.0592,-5.0549,-5.0654,-5.0663,-5.0648,-5.0636,-5.0658,-5.0661,-5.0676,-5.0661,-5.0602,-5.06,-5.0598,-5.0597,0,-5.0656,-5.0606,-5.0715,-5.0689,-5.0685,-5.0769,-5.0748,-5.0808,-5.0776,-5.0854,-5.0868,-5.0819,-5.0876,-5.0823,-5.0877,-5.0848,-5.0989,-5.0953,-5.0988,-5.0979,-5.1095,-5.1086,-5.1473,-5.1521,-5.1149,-5.1152,-5.1155,0,-5.0831,-5.0907,-5.089,-5.0924,-5.0925,-5.0981,-5.1008,-5.0938,-5.097,-5.098,-5.104,-5.1088,-5.1124,-5.1219,-5.1189,-5.123,-5.1196,-5.1329,-5.1202,-5.1223,-5.1202,-5.12,-5.1208,-5.1356,-5.136,-5.1364,-5.1367,0,-5.1148,-5.1119,-5.1162,-5.1196,-5.1231,-5.1255,-5.1271,-5.1304,-5.1232,-5.1273,-5.133,-5.1357,-5.1412,-5.1462,-5.1494,-5.1489,-5.1418,-5.1407,-5.1435,-5.146,-5.1479,-5.1473,-5.1062,-5.1399,-5.1396,-5.1393,-5.1392,-5.139,-5.1387,-5.145,-5.1449,-5.1499,-5.1504,-5.1522,-5.1577,-5.1552,-5.1598,-5.1637,-5.1592,-5.1662,-5.1664,-5.1699,-5.1703,-5.1757,-5.1702,-5.1742,-5.1753,-5.1765,-5.1784,-5.1467,-5.1762,-5.1761,-5.176,-5.176,-5.1759,0,-5.1701,-5.1695,-5.1742,-5.1768,-5.1808,-5.1734,-5.1749,-5.1788,-5.1851,-5.1858,-5.1894,-5.196,-5.2008,-5.1982,-5.2023,-5.2072,-5.2041,-5.2086,-5.2083,-5.2084,-5.1829,-5.1802,-5.2111,-5.2111,-5.2111,-5.2111,-5.2111,-5.2111,-5.187,-5.1974,-5.1946,-5.2052,-5.2044,-5.2111,-5.2126,-5.2143,-5.2148,-5.2226,-5.2265,-5.2247,-5.2241,-5.2281,-5.2323,-5.2314,-5.2335,-5.2393,-5.2373,-5.2136,-5.2102,-5.2069,-5.2043,-5.2397,-5.2398,-5.2623,-5.2625,-5.2627]},{"header":{"parameterUnit":"m.s-1","parameterCategory":1,"la1":30.2991,"la2":30.254,"lo1":-89.0895,"lo2":-89.0444,"dy":0.0017,"dx":0.0017,"nx":28,"ny":28,"refTime":"2024-10-17T09:00:00:Z","depth":0,"parameterNumber":3,"parameterNumberName":"V-component_of_WINDS"},"data":[0,0,0,0,0,0,0,0,0,0,0,0,0,0,0,0,0,0,0,0,0,0,0,0,0,0,0,0,0,0,0,0,0,0,0,0,0,0,0,0,0,0,0,0,0,0,0,0,0,0,0,0,0,0,0,0,0,0,-3.1079,-3.1079,0,-3.1099,-3.1099,-3.11,-3.1081,-3.108,-3.1079,-3.1079,-3.1097,-3.1099,-3.11,0,0,0,0,0,0,0,0,0,0,0,0,0,-3.1022,-3.1023,-3.1079,-3.1079,-3.108,-3.1099,-3.1099,-3.11,-3.1081,-3.108,-3.1079,-3.1078,-3.1097,-3.1098,-3.11,0,0,0,0,0,0,0,0,0,0,0,0,0,-3.1045,-3.1024,-3.1079,-3.1073,-3.1072,-3.1099,-3.1099,-3.11,-3.1081,-3.108,-3.1079,-3.1078,-3.1097,-3.1098,-3.11,-3.1134,0,0,-3.1106,-3.1106,0,0,0,0,0,0,0,0,-3.1044,-3.1047,-3.1073,-3.1073,-3.1073,-3.1086,-3.1086,-3.1111,-3.1081,-3.1078,-3.1079,-3.1077,-3.1095,-3.1096,-3.1103,-3.1135,-3.1135,-3.1106,-3.1107,-3.1108,-3.1108,0,0,0,0,0,0,0,-3.1042,-3.1046,-3.1087,-3.1074,-3.1073,-3.1068,-3.107,-3.1091,-3.1092,-3.1078,-3.1077,-3.1079,-3.1094,-3.1101,-3.1103,-3.1136,-3.1106,-3.1107,-3.1108,-3.1109,-3.1194,-3.1195,0,0,0,0,0,0,-3.1041,-3.1045,-3.1086,-3.1088,-3.1055,-3.107,-3.1072,-3.1083,-3.1092,-3.1092,-3.108,-3.1078,-3.1098,-3.1101,-3.1104,-3.1142,-3.1108,-3.1109,-3.111,-3.1193,-3.1194,-3.1195,0,0,0,0,0,0,-3.104,-3.1045,-3.1086,-3.1066,-3.1071,-3.1072,-3.1085,-3.1084,-3.1091,-3.1094,-3.1094,-3.1087,-3.1098,-3.1101,-3.1126,-3.1142,-3.111,-3.1112,-3.1191,-3.1193,-3.1195,-3.122,0,0,0,0,0,0,-3.1039,-3.1045,-3.1059,-3.1066,-3.1072,-3.1109,-3.1086,-3.1085,-3.1094,-3.1092,-3.11,-3.11,-3.1097,-3.1123,-3.1128,-3.1144,-3.1113,-3.119,-3.1192,-3.1194,-3.1217,-3.1222,-3.1226,0,0,0,0,0,-3.1037,-3.1065,-3.1059,-3.1065,-3.1089,-3.111,-3.1113,-3.1109,-3.1096,-3.1109,-3.111,-3.11,-3.114,-3.1126,-3.1131,-3.1148,-3.1189,-3.1191,-3.1194,-3.1215,-3.1221,-3.1226,0,0,0,0,0,0,-3.1059,-3.1066,-3.106,-3.1092,-3.11,-3.1106,-3.1123,-3.1115,-3.1127,-3.1125,-3.1119,-3.1121,-3.1147,-3.115,-3.1134,-3.118,-3.1162,-3.1166,-3.1177,-3.1182,-3.1187,-3.1185,-3.1115,0,0,0,0,0,-3.1068,-3.1085,-3.109,-3.1117,-3.1122,-3.1121,-3.113,-3.1127,-3.1135,-3.1138,-3.1142,-3.115,-3.1164,-3.1173,-3.1187,-3.1218,-3.1218,-3.1232,-3.1236,-3.124,-3.1243,-3.1258,-3.1263,-3.1204,-3.1204,-3.1204,0,0,-3.1086,-3.1092,-3.1103,-3.1122,-3.1128,-3.1144,-3.1125,-3.1144,-3.1155,-3.1141,-3.1165,-3.1167,-3.1176,-3.1203,-3.1216,-3.1207,-3.1259,-3.1243,-3.1246,-3.1247,-3.1261,-3.1267,-3.1272,-3.1206,-3.1205,-3.1205,0,0,-3.1127,-3.1134,-3.1156,-3.1163,-3.1172,-3.1171,-3.1177,-3.1184,-3.1185,-3.1209,-3.1198,-3.1212,-3.1237,-3.1243,-3.1249,-3.129,-3.1281,-3.1295,-3.1317,-3.1332,-3.1336,-3.134,-3.1354,-3.1359,-3.1298,-3.1298,-3.1298,0,-3.1148,-3.1173,-3.1169,-3.1188,-3.1196,-3.1184,-3.1206,-3.1212,-3.1225,-3.123,-3.122,-3.125,-3.1255,-3.1283,-3.1293,-3.1299,-3.1304,-3.1293,-3.1336,-3.134,-3.1344,-3.1356,-3.1362,-3.13,-3.1299,-3.1299,-3.1299,0,-3.1197,-3.1215,-3.1232,-3.1245,-3.1254,-3.1275,-3.1273,-3.1283,-3.1278,-3.1278,-3.1301,-3.1307,-3.132,-3.1327,-3.1322,-3.1354,-3.1348,-3.1337,-3.1319,-3.1351,-3.1363,-3.1368,-3.1302,-3.1301,-3.1301,-3.13,0,0,-3.1253,-3.1262,-3.1269,-3.1273,-3.1282,-3.1295,-3.1315,-3.1328,-3.1336,-3.1345,-3.136,-3.1381,-3.1371,-3.1378,-3.1374,-3.1387,-3.1417,-3.1375,-3.1375,-3.1381,-3.145,-3.1457,-3.1463,-3.1411,-3.1412,-3.1413,-3.1449,0,-3.1293,-3.1327,-3.1323,-3.1355,-3.137,-3.1358,-3.1374,-3.1381,-3.1381,-3.1393,-3.1394,-3.1408,-3.1394,-3.1398,-3.1411,-3.1411,-3.1431,-3.1409,-3.1424,-3.1425,-3.1421,-3.1469,-3.1477,-3.1511,-3.1454,-3.1454,-3.1455,0,-3.1344,-3.1355,-3.1388,-3.1393,-3.1399,-3.1414,-3.1425,-3.1437,-3.1444,-3.1443,-3.145,-3.1444,-3.1462,-3.1444,-3.1468,-3.1452,-3.1459,-3.146,-3.1461,-3.1461,-3.1441,-3.1469,-3.1521,-3.1526,-3.1462,-3.1462,-3.1461,0,-3.1379,-3.1402,-3.1424,-3.1429,-3.1436,-3.1446,-3.145,-3.1455,-3.1463,-3.1472,-3.1477,-3.1488,-3.1494,-3.1503,-3.1499,-3.1486,-3.1523,-3.1505,-3.1521,-3.1521,-3.1529,-3.1528,-3.1581,-3.1535,-3.1535,-3.1535,-3.1535,0,-3.1424,-3.1444,-3.144,-3.1454,-3.1476,-3.147,-3.1492,-3.1494,-3.1499,-3.1511,-3.1502,-3.1514,-3.1509,-3.152,-3.1517,-3.1537,-3.154,-3.1539,-3.1537,-3.1539,-3.1539,-3.1542,-3.1539,-3.1536,-3.1536,-3.1536,-3.1535,0,-3.1466,-3.1465,-3.1488,-3.1492,-3.1494,-3.1509,-3.1513,-3.1525,-3.1524,-3.154,-3.1544,-3.1543,-3.1556,-3.1553,-3.1567,-3.1565,-3.1589,-3.1585,-3.1586,-3.1585,-3.1601,-3.1599,-3.1657,-3.1663,-3.1614,-3.1615,-3.1615,0,-3.1494,-3.1509,-3.1515,-3.1523,-3.1527,-3.154,-3.1547,-3.1542,-3.155,-3.1558,-3.1569,-3.1581,-3.159,-3.1611,-3.1611,-3.1622,-3.1618,-3.1637,-3.1619,-3.162,-3.1616,-3.1615,-3.1615,-3.164,-3.1641,-3.1641,-3.1642,0,-3.1543,-3.1541,-3.1552,-3.1563,-3.1572,-3.158,-3.1587,-3.1594,-3.1589,-3.1599,-3.1612,-3.1619,-3.1633,-3.1645,-3.1654,-3.1656,-3.1648,-3.1648,-3.1652,-3.1653,-3.1652,-3.1651,-3.1595,-3.1646,-3.1646,-3.1645,-3.1645,-3.1645,-3.1578,-3.159,-3.1595,-3.1608,-3.1612,-3.1619,-3.163,-3.163,-3.1641,-3.1652,-3.1649,-3.1663,-3.1668,-3.168,-3.1683,-3.1694,-3.1686,-3.1693,-3.1694,-3.1695,-3.1697,-3.1651,-3.1696,-3.1696,-3.1696,-3.1695,-3.1695,0,-3.1624,-3.1627,-3.1638,-3.1648,-3.1658,-3.1649,-3.1656,-3.1664,-3.1677,-3.1683,-3.1692,-3.1706,-3.1717,-3.1717,-3.1727,-3.1736,-3.1732,-3.1738,-3.1737,-3.1737,-3.1704,-3.1698,-3.1741,-3.1741,-3.1741,-3.1741,-3.1741,-3.1741,-3.165,-3.1669,-3.1668,-3.1689,-3.1692,-3.1705,-3.171,-3.1715,-3.172,-3.1736,-3.1745,-3.1745,-3.1748,-3.1758,-3.1767,-3.1767,-3.177,-3.1778,-3.1776,-3.1744,-3.174,-3.1735,-3.173,-3.1779,-3.1779,-3.1809,-3.1809,-3.1809]}]]